This is the latest recevied weather packets stored in our database for station/object K8RLH. If no packets are shown the sender has not sent any weather packets the latest 10 day(s).
| Time | Temp. | Humidity | Pressure | Rain* | Wind** | Luminosity | Snow |
|---|---|---|---|---|---|---|---|
| 1778016750 | 26.67° C | 36% | 1015.2 hPa | 0 mm | - | 64 W/m² | - |
| 1778016446 | 26.11° C | 37% | 1015.4 hPa | 0 mm | - | 68 W/m² | - |
| 1778016144 | 26.11° C | 36% | 1015.6 hPa | 0 mm | - | 63 W/m² | - |
| 1778015840 | 26.11° C | 36% | 1015.4 hPa | 0 mm | - | 152 W/m² | - |
| 1778015538 | 25.56° C | 36% | 1015.5 hPa | 0 mm | - | 225 W/m² | - |
| 1778015234 | 26.11° C | 36% | 1015.7 hPa | 0 mm | - | 76 W/m² | - |
| 1778014931 | 26.67° C | 36% | 1015.6 hPa | 0 mm | - | 357 W/m² | - |
| 1778014628 | 26.67° C | 35% | 1015.5 hPa | 0 mm | - | 445 W/m² | - |
| 1778014327 | 26.67° C | 36% | 1015.7 hPa | 0 mm | - | 434 W/m² | - |
| 1778014022 | 26.67° C | 35% | 1015.7 hPa | 0 mm | - | 485 W/m² | - |
| 1778013721 | 26.11° C | 35% | 1015.6 hPa | 0 mm | - | 304 W/m² | - |
| 1778013418 | 26.67° C | 35% | 1015.9 hPa | 0 mm | - | 466 W/m² | - |
| 1778013114 | 26.67° C | 37% | 1015.9 hPa | 0 mm | - | 462 W/m² | - |
| 1778012810 | 26.11° C | 36% | 1015.8 hPa | 0 mm | - | 496 W/m² | - |
| 1778012506 | 26.11° C | 36% | 1015.9 hPa | 0 mm | - | 549 W/m² | - |
| 1778012203 | 26.67° C | 35% | 1015.9 hPa | 0 mm | - | 422 W/m² | - |
| 1778011901 | 26.67° C | 36% | 1016.1 hPa | 0 mm | - | 511 W/m² | - |
| 1778011599 | 26.11° C | 37% | 1016.1 hPa | 0 mm | - | 474 W/m² | - |
| 1778011295 | 25.56° C | 37% | 1016.1 hPa | 0 mm | - | 502 W/m² | - |
| 1778010991 | 25.56° C | 37% | 1016.3 hPa | 0 mm | - | 167 W/m² | - |
| 1778010689 | 25.56° C | 37% | 1016.3 hPa | 0 mm | - | 176 W/m² | - |
| 1778010386 | 26.11° C | 37% | 1016.5 hPa | 0 mm | - | 159 W/m² | - |
| 1778010082 | 26.11° C | 36% | 1016.7 hPa | 0 mm | - | 106 W/m² | - |
| 1778009779 | 26.11° C | 35% | 1016.6 hPa | 0 mm | - | 118 W/m² | - |
| 1778009476 | 26.67° C | 36% | 1016.8 hPa | 0 mm | - | 133 W/m² | - |
* Rain latest hour (hover to see other rain measurements)
** Current wind speed in m/s (hover to see current wind gust speed)